M I D A S
Marine Information and Data Acquisition System
Tripno 1566 of the Zeeleeuw from 2008-09-15 08:00:00 to 2008-09-15 17:00:00
Back to CruiseResearch ActivitiesStationsMapUnderway DataData graphs

EquipmentUnitsComment
TimeDGPSUTC
LatitudeDGPSDM.mWGS84
LongitudeDGPSDM.mWGS84
TemperatureSBE03/SBE38deg celciusITS90
ConductivitySBE21S/mITS90
SalinitySBE21 Practical Salinity Units
ChlorophylAChelsea fluorimeterg/lCalibrated in Aceton
Missing or incorrect values are displayed as -999
Sea surface data collected by the RV Zeeleeuw from 2008-09-15 08:00:00 to 2008-09-15 17:00:00
Time Latitude Longitude Temperature Conductivity Salinity ChlorophylA
2008-09-15 08:02:10 51°21.802 2°47.743 -999 -999 -999 -999
2008-09-15 08:04:10 51°22.14 2°47.439 -999 -999 -999 -999
2008-09-15 08:06:10 51°22.488 2°47.202 -999 -999 -999 -999
2008-09-15 08:08:10 51°22.83 2°46.956 -999 -999 -999 -999
2008-09-15 08:10:10 51°23.172 2°46.7 -999 -999 -999 -999
2008-09-15 08:12:10 51°23.517 2°46.454 -999 -999 -999 -999
2008-09-15 08:14:10 51°23.868 2°46.193 -999 -999 -999 -999
2008-09-15 08:16:10 51°24.213 2°46.076 -999 -999 -999 -999
2008-09-15 08:18:10 51°24.461 2°46.407 -999 -999 -999 -999
2008-09-15 08:20:10 51°24.703 2°46.77 -999 -999 -999 -999
2008-09-15 08:22:10 51°24.951 2°47.133 -999 -999 -999 -999
2008-09-15 08:24:10 51°25.151 2°47.567 -999 -999 -999 -999
2008-09-15 08:26:10 51°25.315 2°48.035 -999 -999 -999 -999
2008-09-15 08:28:10 51°25.485 2°48.513 -999 -999 -999 -999
2008-09-15 08:30:10 51°25.65 2°48.987 -999 -999 -999 -999
2008-09-15 08:32:10 51°25.814 2°49.457 -999 -999 -999 -999
2008-09-15 08:34:10 51°25.978 2°49.932 -999 -999 -999 -999
2008-09-15 08:36:10 51°26.146 2°50.406 -999 -999 -999 -999
2008-09-15 08:38:10 51°26.314 2°50.885 -999 -999 -999 -999
2008-09-15 08:40:10 51°26.503 2°51.347 -999 -999 -999 -999
2008-09-15 08:42:10 51°26.695 2°51.809 -999 -999 -999 -999
2008-09-15 08:44:10 51°26.886 2°52.276 -999 -999 -999 -999
2008-09-15 08:46:10 51°27.08 2°52.741 -999 -999 -999 -999
2008-09-15 08:48:10 51°27.266 2°53.205 -999 -999 -999 -999
2008-09-15 08:50:10 51°27.433 2°53.684 -999 -999 -999 -999
2008-09-15 08:52:10 51°27.591 2°54.167 -999 -999 -999 -999
2008-09-15 08:54:10 51°27.762 2°54.637 -999 -999 -999 -999
2008-09-15 08:56:10 51°27.933 2°55.109 -999 -999 -999 -999
2008-09-15 08:58:10 51°28.116 2°55.572 -999 -999 -999 -999
2008-09-15 09:00:10 51°28.247 2°55.854 -999 -999 -999 -999
2008-09-15 09:02:10 51°28.271 2°55.81 -999 -999 -999 -999
2008-09-15 09:04:10 51°28.305 2°55.842 -999 -999 -999 -999
2008-09-15 09:06:10 51°28.355 2°55.94 -999 -999 -999 -999
2008-09-15 09:08:10 51°28.422 2°56.016 -999 -999 -999 -999
2008-09-15 09:10:10 51°28.492 2°56.1 -999 -999 -999 -999
2008-09-15 09:12:10 51°28.556 2°56.201 -999 -999 -999 -999
2008-09-15 09:14:10 51°28.611 2°56.313 -999 -999 -999 -999
2008-09-15 09:16:10 51°28.663 2°56.44 -999 -999 -999 -999
2008-09-15 09:18:10 51°28.708 2°56.562 -999 -999 -999 -999
2008-09-15 09:20:10 51°28.756 2°56.682 -999 -999 -999 -999
2008-09-15 09:22:10 51°28.804 2°56.801 -999 -999 -999 -999
2008-09-15 09:24:10 51°28.846 2°56.926 -999 -999 -999 -999
2008-09-15 09:26:10 51°28.812 2°57.012 -999 -999 -999 -999
2008-09-15 09:28:10 51°28.74 2°56.979 -999 -999 -999 -999
2008-09-15 09:30:10 51°28.684 2°56.928 -999 -999 -999 -999
2008-09-15 09:32:10 51°28.681 2°57.011 -999 -999 -999 -999
2008-09-15 09:34:10 51°28.817 2°57.455 -999 -999 -999 -999
2008-09-15 09:36:10 51°28.963 2°57.968 -999 -999 -999 -999
2008-09-15 09:38:10 51°29.108 2°58.49 -999 -999 -999 -999
2008-09-15 09:40:10 51°29.258 2°59.01 -999 -999 -999 -999
2008-09-15 09:42:10 51°29.404 2°59.522 -999 -999 -999 -999
2008-09-15 09:44:10 51°29.552 3°0.039 -999 -999 -999 -999
2008-09-15 09:46:10 51°29.704 3°0.554 -999 -999 -999 -999
2008-09-15 09:48:10 51°29.897 3°1.017 -999 -999 -999 -999
2008-09-15 09:50:10 51°30.132 3°1.437 -999 -999 -999 -999
2008-09-15 09:52:10 51°30.367 3°1.854 -999 -999 -999 -999
2008-09-15 09:54:10 51°30.598 3°2.28 -999 -999 -999 -999
2008-09-15 09:56:10 51°30.831 3°2.707 -999 -999 -999 -999
2008-09-15 09:58:10 51°31.06 3°3.144 -999 -999 -999 -999
2008-09-15 10:00:10 51°31.28 3°3.597 -999 -999 -999 -999
2008-09-15 10:02:10 51°31.502 3°4.049 -999 -999 -999 -999
2008-09-15 10:04:10 51°31.723 3°4.509 -999 -999 -999 -999
2008-09-15 10:06:10 51°32.012 3°4.802 -999 -999 -999 -999
2008-09-15 10:08:10 51°32.36 3°4.556 -999 -999 -999 -999
2008-09-15 10:10:10 51°32.692 3°4.229 -999 -999 -999 -999
2008-09-15 10:12:10 51°32.98 3°3.797 -999 -999 -999 -999
2008-09-15 10:14:10 51°33.11 3°3.251 -999 -999 -999 -999
2008-09-15 10:16:10 51°32.926 3°2.637 -999 -999 -999 -999
2008-09-15 10:18:10 51°32.714 3°2.048 -999 -999 -999 -999
2008-09-15 10:20:10 51°32.509 3°1.453 -999 -999 -999 -999
2008-09-15 10:22:10 51°32.282 3°0.879 -999 -999 -999 -999
2008-09-15 10:24:10 51°31.927 3°0.484 -999 -999 -999 -999
2008-09-15 10:26:10 51°31.575 3°0.082 -999 -999 -999 -999
2008-09-15 10:28:10 51°31.226 2°59.679 -999 -999 -999 -999
2008-09-15 10:30:10 51°30.878 2°59.272 -999 -999 -999 -999
2008-09-15 10:32:10 51°30.595 2°58.764 -999 -999 -999 -999
2008-09-15 10:34:10 51°30.319 2°58.243 -999 -999 -999 -999
2008-09-15 10:36:10 51°30.16 2°57.638 -999 -999 -999 -999
2008-09-15 10:38:10 51°30.112 2°56.988 -999 -999 -999 -999
2008-09-15 10:40:10 51°30.087 2°56.337 -999 -999 -999 -999
2008-09-15 10:42:10 51°30.065 2°55.695 -999 -999 -999 -999
2008-09-15 10:44:10 51°30.048 2°55.059 -999 -999 -999 -999
2008-09-15 10:46:10 51°29.949 2°54.444 -999 -999 -999 -999
2008-09-15 10:48:10 51°29.844 2°53.838 -999 -999 -999 -999
2008-09-15 10:50:10 51°29.654 2°53.288 -999 -999 -999 -999
2008-09-15 10:52:10 51°29.465 2°52.739 -999 -999 -999 -999
2008-09-15 10:54:10 51°29.281 2°52.19 -999 -999 -999 -999
2008-09-15 10:56:10 51°29.098 2°51.641 -999 -999 -999 -999
2008-09-15 10:58:10 51°28.916 2°51.092 -999 -999 -999 -999
2008-09-15 11:00:10 51°28.738 2°50.549 -999 -999 -999 -999
2008-09-15 11:02:10 51°28.556 2°50.008 -999 -999 -999 -999
2008-09-15 11:04:10 51°28.378 2°49.465 -999 -999 -999 -999
2008-09-15 11:06:10 51°28.199 2°48.929 -999 -999 -999 -999
2008-09-15 11:08:10 51°28.026 2°48.394 -999 -999 -999 -999
2008-09-15 11:10:10 51°27.852 2°47.856 -999 -999 -999 -999
2008-09-15 11:12:10 51°27.682 2°47.31 -999 -999 -999 -999
2008-09-15 11:14:10 51°27.513 2°46.77 -999 -999 -999 -999
2008-09-15 11:16:10 51°27.343 2°46.233 -999 -999 -999 -999
2008-09-15 11:18:10 51°27.173 2°45.69 -999 -999 -999 -999
2008-09-15 11:20:10 51°27.009 2°45.157 -999 -999 -999 -999
2008-09-15 11:22:10 51°26.847 2°44.624 -999 -999 -999 -999
2008-09-15 11:24:10 51°26.681 2°44.102 -999 -999 -999 -999
2008-09-15 11:26:10 51°26.627 2°43.538 -999 -999 -999 -999
2008-09-15 11:28:10 51°26.826 2°43.045 -999 -999 -999 -999
2008-09-15 11:30:10 51°27.198 2°42.816 -999 -999 -999 -999
2008-09-15 11:32:10 51°27.601 2°42.947 -999 -999 -999 -999
2008-09-15 11:34:10 51°27.897 2°43.448 -999 -999 -999 -999
2008-09-15 11:36:10 51°28.174 2°43.992 -999 -999 -999 -999
2008-09-15 11:38:10 51°28.455 2°44.531 -999 -999 -999 -999
2008-09-15 11:40:10 51°28.728 2°45.091 -999 -999 -999 -999
2008-09-15 11:42:10 51°29.004 2°45.654 -999 -999 -999 -999
2008-09-15 11:44:10 51°29.278 2°46.22 -999 -999 -999 -999
2008-09-15 11:46:10 51°29.532 2°46.811 -999 -999 -999 -999
2008-09-15 11:48:10 51°29.74 2°47.284 -999 -999 -999 -999
2008-09-15 11:50:10 51°29.813 2°47.428 -999 -999 -999 -999
2008-09-15 11:52:10 51°29.926 2°47.606 -999 -999 -999 -999
2008-09-15 11:54:10 51°30.02 2°47.761 -999 -999 -999 -999
2008-09-15 11:56:10 51°30.074 2°47.946 -999 -999 -999 -999
2008-09-15 11:58:10 51°30.128 2°48.14 -999 -999 -999 -999
2008-09-15 13:00:10 51°35.504 2°59.843 -999 -999 -999 -999
2008-09-15 13:02:10 51°35.581 2°59.281 -999 -999 -999 -999
2008-09-15 13:04:10 51°35.507 2°58.729 -999 -999 -999 -999
2008-09-15 13:06:10 51°35.337 2°58.247 -999 -999 -999 -999
2008-09-15 13:08:10 51°35.18 2°57.752 -999 -999 -999 -999
2008-09-15 13:10:10 51°35.03 2°57.248 -999 -999 -999 -999
2008-09-15 13:12:10 51°34.884 2°56.742 -999 -999 -999 -999
2008-09-15 13:14:10 51°34.708 2°56.262 -999 -999 -999 -999
2008-09-15 13:16:10 51°34.54 2°55.767 -999 -999 -999 -999
2008-09-15 13:18:10 51°34.371 2°55.278 -999 -999 -999 -999
2008-09-15 13:20:10 51°34.204 2°54.783 -999 -999 -999 -999
2008-09-15 13:22:10 51°34.036 2°54.289 -999 -999 -999 -999
2008-09-15 13:24:10 51°33.867 2°53.801 -999 -999 -999 -999
2008-09-15 13:26:10 51°33.699 2°53.315 -999 -999 -999 -999
2008-09-15 13:28:10 51°33.532 2°52.822 -999 -999 -999 -999
2008-09-15 13:30:10 51°33.364 2°52.332 -999 -999 -999 -999
2008-09-15 13:32:10 51°33.171 2°51.869 -999 -999 -999 -999
2008-09-15 13:34:10 51°32.976 2°51.408 -999 -999 -999 -999
2008-09-15 13:36:10 51°32.783 2°50.946 -999 -999 -999 -999
2008-09-15 13:38:10 51°32.584 2°50.486 -999 -999 -999 -999
2008-09-15 13:40:10 51°32.39 2°50.021 -999 -999 -999 -999
2008-09-15 13:42:10 51°32.199 2°49.551 -999 -999 -999 -999
2008-09-15 13:44:10 51°32.001 2°49.085 -999 -999 -999 -999
2008-09-15 13:46:10 51°31.817 2°48.608 -999 -999 -999 -999
2008-09-15 13:48:10 51°31.643 2°48.109 -999 -999 -999 -999
2008-09-15 13:50:10 51°31.472 2°47.615 -999 -999 -999 -999
2008-09-15 13:52:10 51°31.301 2°47.12 -999 -999 -999 -999
2008-09-15 13:54:10 51°31.132 2°46.632 -999 -999 -999 -999
2008-09-15 13:56:10 51°30.967 2°46.144 -999 -999 -999 -999
2008-09-15 13:58:10 51°30.802 2°45.648 -999 -999 -999 -999
2008-09-15 14:00:10 51°30.639 2°45.161 -999 -999 -999 -999
2008-09-15 14:02:10 51°30.481 2°44.674 -999 -999 -999 -999
2008-09-15 14:04:10 51°30.316 2°44.178 -999 -999 -999 -999
2008-09-15 14:06:10 51°30.151 2°43.682 -999 -999 -999 -999
2008-09-15 14:08:10 51°29.995 2°43.188 -999 -999 -999 -999
2008-09-15 14:10:10 51°29.833 2°42.689 -999 -999 -999 -999
2008-09-15 14:12:10 51°29.674 2°42.183 -999 -999 -999 -999
2008-09-15 14:14:10 51°29.516 2°41.686 -999 -999 -999 -999
2008-09-15 14:16:10 51°29.358 2°41.189 -999 -999 -999 -999
2008-09-15 14:18:10 51°29.203 2°40.694 -999 -999 -999 -999
2008-09-15 14:20:10 51°29.039 2°40.21 -999 -999 -999 -999
2008-09-15 14:22:10 51°28.838 2°39.759 -999 -999 -999 -999
2008-09-15 14:24:10 51°28.553 2°39.59 -999 -999 -999 -999
2008-09-15 14:26:10 51°28.201 2°39.702 -999 -999 -999 -999
2008-09-15 14:28:10 51°27.864 2°39.919 -999 -999 -999 -999
2008-09-15 14:30:10 51°27.526 2°40.158 -999 -999 -999 -999
2008-09-15 14:32:10 51°27.189 2°40.407 -999 -999 -999 -999
2008-09-15 14:34:10 51°26.854 2°40.643 -999 -999 -999 -999
2008-09-15 14:36:10 51°26.517 2°40.912 -999 -999 -999 -999
2008-09-15 14:38:10 51°26.177 2°41.177 -999 -999 -999 -999
2008-09-15 14:40:10 51°25.836 2°41.439 -999 -999 -999 -999
2008-09-15 14:42:10 51°25.501 2°41.71 -999 -999 -999 -999
2008-09-15 14:44:10 51°25.169 2°41.984 -999 -999 -999 -999
2008-09-15 14:46:10 51°24.849 2°42.289 -999 -999 -999 -999
2008-09-15 14:48:10 51°24.521 2°42.596 -999 -999 -999 -999
2008-09-15 14:50:10 51°24.186 2°42.866 -999 -999 -999 -999
2008-09-15 14:52:10 51°23.841 2°43.143 -999 -999 -999 -999
2008-09-15 14:54:10 51°23.499 2°43.425 -999 -999 -999 -999
2008-09-15 14:56:10 51°23.155 2°43.704 -999 -999 -999 -999
2008-09-15 14:58:10 51°22.785 2°43.821 -999 -999 -999 -999
2008-09-15 15:00:10 51°22.408 2°43.879 -999 -999 -999 -999
2008-09-15 15:02:10 51°22.039 2°43.994 -999 -999 -999 -999
2008-09-15 15:04:10 51°21.691 2°44.256 -999 -999 -999 -999
2008-09-15 15:06:10 51°21.377 2°44.614 -999 -999 -999 -999
2008-09-15 15:08:10 51°21.067 2°44.996 -999 -999 -999 -999
2008-09-15 15:10:10 51°20.753 2°45.367 -999 -999 -999 -999
2008-09-15 15:12:10 51°20.445 2°45.752 -999 -999 -999 -999
2008-09-15 15:14:10 51°20.131 2°46.118 -999 -999 -999 -999
2008-09-15 15:16:10 51°19.81 2°46.465 -999 -999 -999 -999
2008-09-15 15:18:10 51°19.488 2°46.812 -999 -999 -999 -999
2008-09-15 15:20:10 51°19.166 2°47.157 -999 -999 -999 -999
2008-09-15 15:22:10 51°18.842 2°47.501 -999 -999 -999 -999
2008-09-15 15:24:10 51°18.521 2°47.842 -999 -999 -999 -999
2008-09-15 15:26:10 51°18.203 2°48.177 -999 -999 -999 -999
2008-09-15 15:28:10 51°17.881 2°48.501 -999 -999 -999 -999
2008-09-15 15:30:10 51°17.559 2°48.833 -999 -999 -999 -999
2008-09-15 15:32:10 51°17.237 2°49.171 -999 -999 -999 -999
2008-09-15 15:34:10 51°16.915 2°49.505 -999 -999 -999 -999
2008-09-15 15:36:10 51°16.59 2°49.842 -999 -999 -999 -999
2008-09-15 15:38:10 51°16.261 2°50.17 -999 -999 -999 -999
2008-09-15 15:40:10 51°15.971 2°50.578 -999 -999 -999 -999
2008-09-15 15:42:10 51°15.728 2°51.066 -999 -999 -999 -999
2008-09-15 15:44:10 51°15.545 2°51.616 -999 -999 -999 -999
2008-09-15 15:46:10 51°15.36 2°52.16 -999 -999 -999 -999
2008-09-15 15:48:10 51°15.174 2°52.701 -999 -999 -999 -999
2008-09-15 15:50:10 51°14.985 2°53.234 -999 -999 -999 -999
2008-09-15 15:52:10 51°14.804 2°53.778 -999 -999 -999 -999
2008-09-15 15:54:10 51°14.611 2°54.315 -999 -999 -999 -999
2008-09-15 15:56:10 51°14.417 2°54.83 -999 -999 -999 -999
2008-09-15 15:58:10 51°14.22 2°55.298 -999 -999 -999 -999